Kodiak, AK

1:43 PM AKDT en Mayo 22, 2018 (GMT -0800)
Kodiak

Tiempo Historia de PADQ - Enero, 2018

Change the Weather History Date:

Lunes, Enero 1, 2018

  Actual Average Record
Temperature  
Temperatura media 42 ° F 31 ° F  
Temperatura máxima 44 ° F 36 ° F 46 ° F (1985)
Temperatura mínima 39 ° F 26 ° F -9 ° F (1917)
Degree Days  
Grados día de calefacción 23 34  
Month to date heating degree days 23 34  
Since 1 July heating degree days 3471 3877  
Cooling Degree Days 0 0  
Month to date cooling degree days 0 0  
Year to date cooling degree days 0 0  
Moisture  
Punto de rocío 39 ° F    
Average Humidity 88    
Maximum Humidity 100    
Minimum Humidity 76    
Precipitación  
Precipitación 0.90 pul 0.28 pul 1.25 pul (2008)
Month to date precipitation 0.90 0.28  
Year to date precipitation 0.90 0.28  
Nieve  
Nieve 0.00 pul 0.40 pul 3.80 pul (1967)
Month to date snowfall 0.0 0.4  
Since 1 July snowfall 9.9 21.7  
Since 1 September snowfall 9.9 21.7  
Grosos de nieve 0.00 pul    
Presión al nivel del mar  
Presión al nivel del mar 29.00 pul    
Viento  
Velocidad del viento 21 mph (Este)    
Velocidad máxima del viento 31 mph    
Max Gust Speed 44 mph    
Visibilidad 5 Millas    
Eventos Lluvia    
T = Trace of Precipitation, MM = Missing Value Source: NWS Daily Summary

Daily Weather History Graph

Daily Weather History Graph

Search for Another Location

Airport or City:

Astronomía

Jan. 01, 2018 Salida Puesta
Hora real 9:53 AM AKST 4:34 PM AKST
Crepúsculo civil 9:02 AM AKST 5:24 PM AKST
Crepúsculo náutico 8:11 AM AKST 6:16 PM AKST
Crepúsculo astronómico 7:23 AM AKST 7:04 PM AKST
Luna 4:51 PM AKST (1/1) 9:11 AM AKST (1/1)
Horas de luz 8h 22m
Horas de luz
6h 41m
Luna llena, 100% of the Moon is Illuminated
Ene 1
Luna llena
Ene 1
Luna llena
Ene 8
Cuarto menguante
Ene 16
Nueva
Ene 24
Cuarto creciente

Hourly Weather History & Observations

Hora (AKST) Temp. Vientos helados Punto de rocío Humedad Presión Visibilidad Wind Dir Velocidad del viento Velocidad de ráfagas Precip Eventos Condiciones
12:11 AM 39.9 ° F 31.1 ° F 34.0 ° F 79% 29.44 pul 10.0 mi ESE 17.3 mph - N/A   Nublado
12:53 AM 39.9 ° F 32.9 ° F 33.1 ° F 77% 29.44 pul 10.0 mi ESE 11.5 mph - N/A   Nublado
1:53 AM 39.9 ° F 31.4 ° F 33.1 ° F 77% 29.42 pul 10.0 mi Este 16.1 mph - 0.00 pul   Nublado
2:53 AM 39.9 ° F 31.4 ° F 32.0 ° F 73% 29.42 pul 10.0 mi Este 16.1 mph - N/A   Nublado
3:53 AM 39.9 ° F 31.8 ° F 32.0 ° F 73% 29.39 pul 9.0 mi Este 15.0 mph - 0.00 pul Lluvia Lluvia débil
4:06 AM 39.9 ° F 31.1 ° F 33.1 ° F 77% 29.38 pul 10.0 mi Este 17.3 mph - 0.00 pul   Nublado
4:27 AM 41.0 ° F 31.9 ° F 33.1 ° F 73% 29.37 pul 10.0 mi Este 19.6 mph - 0.00 pul   Nublado
4:53 AM 39.9 ° F 30.5 ° F 34.0 ° F 79% 29.37 pul 10.0 mi ESE 19.6 mph - 0.00 pul   Nublado
5:14 AM 39.9 ° F 29.2 ° F 35.1 ° F 83% 29.35 pul 10.0 mi Este 25.3 mph - 0.00 pul   Nublado
5:38 AM 39.0 ° F 29.9 ° F 35.1 ° F 86% 29.35 pul 10.0 mi Este 17.3 mph - 0.00 pul   Nublado
5:53 AM 39.9 ° F 30.8 ° F 35.1 ° F 83% 29.33 pul 10.0 mi ENE 18.4 mph - 0.00 pul   Nublado
6:50 AM 39.2 ° F 28.5 ° F 35.6 ° F 87% 29.28 pul 10.0 mi ENE 24.2 mph 29.9 mph 0.00 pul Lluvia Lluvia débil
6:53 AM 39.9 ° F 29.7 ° F 35.1 ° F 83% 29.28 pul 10.0 mi ENE 23.0 mph 29.9 mph 0.00 pul   Nublado
7:32 AM 39.9 ° F 29.2 ° F 36.0 ° F 86% 29.26 pul 10.0 mi ENE 25.3 mph 31.1 mph 0.00 pul   Nublado
7:42 AM 39.9 ° F 28.8 ° F 36.0 ° F 86% 29.26 pul 10.0 mi Este 27.6 mph - 0.00 pul   Nublado
7:53 AM 39.9 ° F 29.2 ° F 36.0 ° F 86% 29.26 pul 10.0 mi ENE 25.3 mph 31.1 mph 0.00 pul   Nublado
8:48 AM 39.2 ° F 27.8 ° F 37.4 ° F 93% 29.21 pul 3.0 mi ENE 27.6 mph 39.1 mph 0.03 pul Lluvia Lluvia débil
8:53 AM 39.0 ° F 26.2 ° F 37.0 ° F 93% 29.22 pul 4.0 mi ENE 35.7 mph 41.4 mph 0.05 pul Lluvia Lluvia débil
9:53 AM 39.0 ° F 27.2 ° F 37.0 ° F 93% 29.14 pul 4.0 mi ENE 29.9 mph 39.1 mph 0.08 pul Lluvia Lluvia
10:53 AM 39.9 ° F 28.2 ° F 37.9 ° F 93% 29.08 pul 4.0 mi ENE 31.1 mph 42.6 mph 0.10 pul Lluvia Lluvia
11:36 AM 39.0 ° F 28.0 ° F 37.0 ° F 93% 29.03 pul 3.0 mi ENE 25.3 mph 38.0 mph 0.07 pul Lluvia Lluvia
11:44 AM 39.0 ° F 27.0 ° F 37.9 ° F 96% 29.01 pul 3.0 mi NE 31.1 mph 36.8 mph 0.09 pul Lluvia Lluvia
11:53 AM 39.9 ° F 28.2 ° F 37.9 ° F 93% 29.00 pul 3.0 mi NE 31.1 mph 39.1 mph 0.11 pul Lluvia Lluvia débil
12:53 PM 41.0 ° F 30.0 ° F 39.0 ° F 93% 28.90 pul 3.0 mi NE 28.8 mph 35.7 mph 0.12 pul Lluvia Lluvia
12:55 PM 41.0 ° F 30.7 ° F 39.0 ° F 93% 28.89 pul 1.5 mi NE 25.3 mph 35.7 mph 0.00 pul Lluvia Lluvia
1:04 PM 41.0 ° F 30.2 ° F 39.9 ° F 96% 28.88 pul 1.5 mi NE 27.6 mph 34.5 mph 0.01 pul Lluvia Lluvia
1:16 PM 42.1 ° F 32.1 ° F 39.9 ° F 92% 28.86 pul 1.0 mi NE 25.3 mph - 0.05 pul Lluvia Lluvia
1:37 PM 42.1 ° F 32.6 ° F 41.0 ° F 96% 28.83 pul 0.8 mi NE 23.0 mph 29.9 mph 0.11 pul Lluvia Lluvia
1:53 PM 43.0 ° F 33.5 ° F 41.0 ° F 93% 28.82 pul 0.8 mi ENE 24.2 mph - 0.14 pul Lluvia Lluvia
2:07 PM 43.0 ° F 33.5 ° F 42.1 ° F 97% 28.80 pul 1.0 mi ENE 24.2 mph - 0.03 pul Lluvia Lluvia débil
2:15 PM 43.0 ° F 33.5 ° F 42.1 ° F 97% 28.79 pul 1.5 mi ENE 24.2 mph 33.4 mph 0.04 pul Lluvia Lluvia débil
2:36 PM 43.0 ° F 33.8 ° F 42.1 ° F 97% 28.77 pul 3.0 mi ENE 23.0 mph 34.5 mph 0.07 pul Lluvia Lluvia débil
2:53 PM 43.0 ° F 33.8 ° F 43.0 ° F 100% 28.75 pul 1.8 mi Este 23.0 mph - 0.07 pul Lluvia Lluvia débil
3:13 PM 43.0 ° F 34.2 ° F 43.0 ° F 100% 28.73 pul 1.0 mi Este 20.7 mph - 0.03 pul Lluvia Lluvia débil
3:18 PM 43.0 ° F 34.2 ° F 43.0 ° F 100% 28.73 pul 0.8 mi Este 20.7 mph - 0.03 pul Lluvia Lluvia débil
3:32 PM 43.0 ° F 35.1 ° F 43.0 ° F 100% 28.73 pul 1.2 mi Este 17.3 mph - 0.04 pul Lluvia Lluvia débil
3:53 PM 44.1 ° F 35.9 ° F 43.0 ° F 96% 28.73 pul 1.2 mi ESE 19.6 mph - 0.05 pul Lluvia Lluvia débil
4:49 PM 42.8 ° F 34.0 ° F 42.8 ° F 100% 28.71 pul 3.0 mi Este 20.7 mph - 0.01 pul   Nublado
4:53 PM 43.0 ° F 34.2 ° F 42.1 ° F 97% 28.72 pul 3.0 mi Este 20.7 mph - 0.01 pul Lluvia Lluvia débil
5:53 PM 43.0 ° F 34.2 ° F 42.1 ° F 97% 28.71 pul 3.0 mi Este 20.7 mph - 0.03 pul Lluvia Lluvia débil
6:53 PM 42.1 ° F 33.9 ° F 41.0 ° F 96% 28.71 pul - ESE 17.3 mph - 0.02 pul Lluvia Lluvia débil
7:03 PM 42.1 ° F 33.9 ° F 41.0 ° F 96% 28.70 pul 5.0 mi ESE 17.3 mph - 0.01 pul Lluvia Lluvia débil
7:08 PM 42.1 ° F 33.9 ° F 41.0 ° F 96% 28.70 pul 5.0 mi ESE 17.3 mph - 0.01 pul Lluvia Lluvia débil
7:23 PM 42.1 ° F 33.6 ° F 41.0 ° F 96% 28.70 pul 5.0 mi Este 18.4 mph - 0.01 pul Lluvia Lluvia débil
7:53 PM 42.1 ° F 35.2 ° F 42.1 ° F 100% 28.70 pul 5.0 mi ESE 12.7 mph - 0.02 pul   Nublado
8:24 PM 42.1 ° F 35.7 ° F 41.0 ° F 96% 28.71 pul 8.0 mi ESE 11.5 mph - 0.02 pul Lluvia Lluvia débil
8:53 PM 42.1 ° F 36.1 ° F 39.9 ° F 92% 28.71 pul 6.0 mi ESE 10.4 mph - 0.03 pul Lluvia Lluvia débil
9:53 PM 43.0 ° F 35.1 ° F 39.9 ° F 89% 28.73 pul 4.0 mi SE 17.3 mph 28.8 mph 0.03 pul Lluvia Lluvia débil
10:53 PM 44.1 ° F 36.8 ° F 41.0 ° F 89% 28.78 pul 6.0 mi SSE 16.1 mph 25.3 mph 0.02 pul Lluvia Lluvia débil
11:53 PM 44.1 ° F 36.5 ° F 41.0 ° F 89% 28.83 pul 9.0 mi SSE 17.3 mph - 0.02 pul Lluvia Lluvia débil